Regional Weather Roundup
Issued by NWS

Home | Current Version | Previous Version | Text Only | Print | Product List | Glossary On
Versions: 1 2 3 4 5 6 7 8 9 10 11 12 13 14 15 16 17 18 19 20 21 22 23 24 25 26 27 28 29 30 31 32 33 34 35 36 37 38 39 40 41 42 43 44 45 46 47 48 49 50
000
ASUS44 KBMX 291810
RWRAL

ALABAMA REGIONAL WEATHER ROUNDUP
NATIONAL WEATHER SERVICE BIRMINGHAM AL
100 PM CDT TUE JUL 29 2014

NOTE: "FAIR" INDICATES FEW OR NO CLOUDS BELOW 12,000 FEET
WITH NO SIGNIFICANT WEATHER AND/OR OBSTRUCTIONS TO VISIBILITY.

THE REMARK "TC" DENOTES TEMPERATURE IN DEGREES CELSIUS.

ALZ001>011-014-016>018-020-291900-
NORTH ALABAMA

CITY           SKY/WX    TMP DP  RH WIND       PRES   REMARKS
MUSCLE SHOALS  MOSUNNY   77  51  40 N6        30.12S
6HR MIN TEMP:  67; 6HR MAX TEMP:  78;

HUNTSVILLE     MOSUNNY   78  52  40 NW9G16    30.08F
6HR MIN TEMP:  65; 6HR MAX TEMP:  78;

DECATUR        SUNNY     76  54  46 N10       30.09F
6HR MIN TEMP:  64; 6HR MAX TEMP:  76;

HALEYVILLE     FAIR      74  55  51 N9        30.13F
6HR MIN TEMP:  62; 6HR MAX TEMP:  74;

GADSDEN        PTSUNNY   79  55  44 NW9       30.05S
6HR MIN TEMP:  64; 6HR MAX TEMP:  79;

$$

ALZ012-013-022-023-030>036-040>044-291900-
WEST CENTRAL ALABAMA

CITY           SKY/WX    TMP DP  RH WIND       PRES   REMARKS
TUSCALOOSA     PTSUNNY   82  60  47 N13       30.05F
6HR MIN TEMP:  69; 6HR MAX TEMP:  85;

$$

ALZ015-024>027-033>036-040>044-291900-
CENTRAL ALABAMA

CITY           SKY/WX    TMP DP  RH WIND       PRES   REMARKS
BIRMINGHAM     PTSUNNY   82  56  40 NW13G21   30.07F
6HR MIN TEMP:  67; 6HR MAX TEMP:  83;

MONTGOMERY     MOSUNNY   88  59  37 NW8       30.02F
6HR MIN TEMP:  69; 6HR MAX TEMP:  90;

SHELBY CO ARPT PTSUNNY   82  59  45 N8        30.05S
6HR MIN TEMP:  70; 6HR MAX TEMP:  82;

MAXWELL AFB    PTSUNNY   85  59  42 N9        30.02F
6HR MIN TEMP:  70; 6HR MAX TEMP:  87; 6HR PCP: TRACE;

GREENVILLE     FAIR      85  59  41 VRB7      30.02F
6HR MIN TEMP:  70; 6HR MAX TEMP:  86;

$$

ALZ019-021-028-029-037-038-045>048-291900-
EAST CENTRAL ALABAMA

CITY           SKY/WX    TMP DP  RH WIND       PRES   REMARKS
ANNISTON       MOSUNNY   80  55  42 NW6G18    30.03F
6HR MIN TEMP:  65; 6HR MAX TEMP:  82;

ALEXANDER CITY SUNNY     83  56  39 NW8       30.04F
6HR MIN TEMP:  71; 6HR MAX TEMP:  83;

AUBURN         MOSUNNY   81  57  44 N13       30.06F
6HR MIN TEMP:  66; 6HR MAX TEMP:  81;

$$

ALZ051>064-291900-
SOUTHWEST ALABAMA

CITY           SKY/WX    TMP DP  RH WIND       PRES   REMARKS
MOBILE         MOSUNNY   84  66  54 N6        30.05F
6HR MIN TEMP:  70; 6HR MAX TEMP:  86;

BROOKLEY FIELD MOSUNNY   86  65  49 NW6       30.05F
6HR MIN TEMP:  73; 6HR MAX TEMP:  87;

EVERGREEN      PTSUNNY   88  59  37 N6        30.03F
6HR MIN TEMP:  69; 6HR MAX TEMP:  91;

$$

ALZ049-050-065>069-291900-
SOUTHEAST ALABAMA

CITY           SKY/WX    TMP DP  RH WIND       PRES   REMARKS
DOTHAN         SUNNY     84  64  50 NW10      30.03F
6HR MIN TEMP:  70; 6HR MAX TEMP:  85;

OZARK          PTSUNNY   85  64  48 VRB6      30.00F
6HR MIN TEMP:  71; 6HR MAX TEMP:  86;

TROY           MOSUNNY   87  58  37 N12G18    30.02F
6HR MIN TEMP:  67; 6HR MAX TEMP:  88;

EUFAULA        FAIR      86  62  44 VRB6      29.99F
6HR MIN TEMP:  71; 6HR MAX TEMP:  87;

$$


USA.gov is the U.S. government's official web portal to all federal, state and local government web resources and services.